Mosby, MO

8:47 PM CDT on May 21, 2018 (GMT -0500)
Clay County Regional

Weather History for KGPH - March, 2014

Change the Weather History Date:

Wednesday, March 19, 2014

  Actual Average (KMKC) Record (KMKC)
Temperature  
Mean Temperature 42 °F -  
Max Temperature 51 °F 54 °F 88 °F (2017)
Min Temperature 32 °F 34 °F 30 °F (2005)
Degree Days  
Heating Degree Days 24    
Moisture  
Dew Point 29 °F    
Average Humidity 66    
Maximum Humidity 87    
Minimum Humidity 30    
Precipitation  
Precipitation 0.00 in - - ()
Sea Level Pressure  
Sea Level Pressure 29.99 in    
Wind  
Wind Speed 12 mph (WNW)    
Max Wind Speed 20 mph    
Max Gust Speed 33 mph    
Visibility 10 miles    
Events Rain    
Averages and records for this station are not official NWS values.
T = Trace of Precipitation, MM = Missing Value Source: NWS Daily Summary

Daily Weather History Graph

Daily Weather History Graph

Search for Another Location

Airport or City:

Astronomy

Mar. 19, 2014 Rise Set
Actual Time 7:22 AM CDT 7:28 PM CDT
Civil Twilight 6:55 AM CDT 7:55 PM CDT
Nautical Twilight 6:24 AM CDT 8:26 PM CDT
Astronomical Twilight 5:52 AM CDT 8:58 PM CDT
Moon 10:46 PM CDT (3/19) 8:49 AM CDT (3/19)
Length of Visible Light 12h 59m
Length of Day
12h 06m
Waning Gibbous, 91% of the Moon is Illuminated
Mar 19
Waning Gibbous
Mar 23
Last Quarter
Mar 30
New
Apr 7
First Quarter
Apr 15
Full

Hourly Weather History & Observations

Time (CDT) Temp. Windchill Dew Point Humidity Pressure Visibility Wind Dir Wind Speed Gust Speed Precip Events Conditions
12:15 AM 48.2 °F - 35.6 °F 62% 29.62 in 10.0 mi West 6.9 mph - N/A   Clear
12:35 AM 48.2 °F - 35.6 °F 62% 29.63 in 10.0 mi WNW 5.8 mph - N/A   Clear
12:55 AM 46.4 °F 41.5 °F 37.4 °F 71% 29.63 in 10.0 mi NW 10.4 mph - N/A   Clear
1:15 AM 44.6 °F 37.2 °F 35.6 °F 71% 29.65 in 10.0 mi WNW 17.3 mph 26.5 mph N/A   Clear
1:35 AM 42.8 °F 34.8 °F 35.6 °F 76% 29.67 in 10.0 mi NW 17.3 mph 24.2 mph N/A   Mostly Cloudy
1:55 AM 42.8 °F 34.3 °F 35.6 °F 76% 29.69 in 10.0 mi NW 19.6 mph 27.6 mph N/A   Overcast
2:15 AM 41.0 °F 33.1 °F 35.6 °F 81% 29.71 in 10.0 mi NW 15.0 mph 23.0 mph N/A   Unknown
2:35 AM 41.0 °F 32.8 °F 35.6 °F 81% 29.73 in 10.0 mi NW 16.1 mph 24.2 mph N/A   Unknown
2:55 AM 37.4 °F 27.2 °F 33.8 °F 87% 29.75 in 10.0 mi WNW 19.6 mph 28.8 mph N/A Rain Light Rain
3:15 AM 37.4 °F 27.8 °F 33.8 °F 87% 29.77 in 10.0 mi NW 17.3 mph 26.5 mph N/A   Unknown
3:35 AM 37.4 °F 27.8 °F 32.0 °F 81% 29.79 in 10.0 mi NW 17.3 mph 23.0 mph N/A   Overcast
3:55 AM 35.6 °F 26.2 °F 32.0 °F 87% 29.80 in 10.0 mi NW 15.0 mph 24.2 mph N/A   Overcast
4:15 AM 35.6 °F 26.2 °F 32.0 °F 87% 29.82 in 10.0 mi WNW 15.0 mph 23.0 mph N/A   Overcast
4:35 AM 35.6 °F 26.2 °F 32.0 °F 87% 29.83 in 10.0 mi NW 15.0 mph 27.6 mph N/A   Overcast
4:55 AM 35.6 °F 26.2 °F 32.0 °F 87% 29.85 in 10.0 mi NW 15.0 mph 20.7 mph N/A   Overcast
5:15 AM 35.6 °F 25.9 °F 32.0 °F 87% 29.87 in 10.0 mi NW 16.1 mph 26.5 mph N/A   Overcast
5:35 AM 35.6 °F 25.5 °F 30.2 °F 81% 29.89 in 10.0 mi WNW 17.3 mph 23.0 mph N/A   Overcast
5:55 AM 35.6 °F 24.8 °F 30.2 °F 81% 29.90 in 10.0 mi NW 19.6 mph 26.5 mph N/A   Unknown
6:15 AM 35.6 °F 25.5 °F 30.2 °F 81% 29.92 in 10.0 mi NW 17.3 mph 33.4 mph N/A   Overcast
6:35 AM 35.6 °F 25.5 °F 30.2 °F 81% 29.93 in 10.0 mi NW 17.3 mph 28.8 mph N/A   Overcast
6:55 AM 35.6 °F 25.5 °F 30.2 °F 81% 29.95 in 10.0 mi NW 17.3 mph 26.5 mph N/A   Overcast
7:15 AM 35.6 °F 26.2 °F 30.2 °F 81% 29.96 in 10.0 mi NW 15.0 mph 24.2 mph N/A   Overcast
7:35 AM 35.6 °F 25.9 °F 30.2 °F 81% 29.97 in 10.0 mi NW 16.1 mph 25.3 mph N/A   Overcast
7:55 AM 35.6 °F 25.5 °F 30.2 °F 81% 29.99 in 10.0 mi NW 17.3 mph 21.9 mph N/A   Unknown
8:15 AM 35.6 °F 25.5 °F 30.2 °F 81% 29.99 in 10.0 mi NW 17.3 mph 25.3 mph N/A   Unknown
8:35 AM 35.6 °F 27.1 °F 32.0 °F 87% 30.00 in 10.0 mi NW 12.7 mph 24.2 mph N/A   Unknown
8:55 AM 35.6 °F 27.1 °F 32.0 °F 87% 30.02 in 10.0 mi NW 12.7 mph 19.6 mph N/A   Overcast
9:15 AM 37.4 °F 28.2 °F 30.2 °F 75% 30.02 in 10.0 mi NW 16.1 mph - N/A   Overcast
9:35 AM 37.4 °F 30.3 °F 30.2 °F 75% 30.04 in 10.0 mi NW 10.4 mph - N/A   Overcast
9:55 AM 37.4 °F 29.3 °F 30.2 °F 75% 30.05 in 10.0 mi NW 12.7 mph - N/A   Overcast
10:15 AM 37.4 °F 29.8 °F 30.2 °F 75% 30.06 in 10.0 mi WNW 11.5 mph 19.6 mph N/A   Overcast
10:35 AM 37.4 °F 29.3 °F 30.2 °F 75% 30.07 in 10.0 mi WNW 12.7 mph 20.7 mph N/A   Overcast
10:55 AM 37.4 °F 28.5 °F 30.2 °F 75% 30.07 in 10.0 mi WNW 15.0 mph 21.9 mph N/A   Overcast
11:15 AM 39.2 °F 30.5 °F 30.2 °F 70% 30.09 in 10.0 mi NW 16.1 mph 21.9 mph N/A   Overcast
11:35 AM 39.2 °F 30.2 °F 30.2 °F 70% 30.10 in 10.0 mi NW 17.3 mph 21.9 mph N/A   Overcast
11:55 AM 41.0 °F 33.9 °F 30.2 °F 65% 30.11 in 10.0 mi WNW 12.7 mph - N/A   Overcast
12:15 PM 41.0 °F 33.1 °F 30.2 °F 65% 30.11 in 10.0 mi WNW 15.0 mph 20.7 mph N/A   Overcast
12:35 PM 41.0 °F 33.5 °F 30.2 °F 65% 30.11 in 10.0 mi WNW 13.8 mph 19.6 mph N/A   Overcast
12:55 PM 41.0 °F 32.5 °F 30.2 °F 65% 30.11 in 10.0 mi WNW 17.3 mph 20.7 mph N/A   Overcast
1:15 PM 42.8 °F 35.1 °F 30.2 °F 61% 30.12 in 10.0 mi West 16.1 mph 21.9 mph N/A   Scattered Clouds
1:35 PM 44.6 °F 37.4 °F 30.2 °F 57% 30.11 in 10.0 mi WNW 16.1 mph 20.7 mph N/A   Scattered Clouds
1:55 PM 44.6 °F 37.8 °F 28.4 °F 53% 30.11 in 10.0 mi WNW 15.0 mph 23.0 mph N/A   Clear
2:15 PM 46.4 °F 41.1 °F 28.4 °F 50% 30.10 in 10.0 mi WNW 11.5 mph 23.0 mph N/A   Clear
2:35 PM 46.4 °F 41.9 °F 28.4 °F 50% 30.10 in 10.0 mi WNW 9.2 mph 17.3 mph N/A   Clear
2:55 PM 46.4 °F 40.7 °F 28.4 °F 50% 30.10 in 10.0 mi NW 12.7 mph 21.9 mph N/A   Clear
3:15 PM 50.0 °F - 26.6 °F 40% 30.10 in 10.0 mi WNW 16.1 mph 19.6 mph N/A   Clear
3:35 PM 50.0 °F - 26.6 °F 40% 30.09 in 10.0 mi WNW 16.1 mph 21.9 mph N/A   Clear
3:55 PM 50.0 °F - 26.6 °F 40% 30.09 in 10.0 mi WNW 13.8 mph 29.9 mph N/A   Clear
4:15 PM 50.0 °F - 24.8 °F 37% 30.09 in 10.0 mi WNW 16.1 mph 21.9 mph N/A   Clear
4:35 PM 51.8 °F - 23.0 °F 33% 30.08 in 10.0 mi NW 13.8 mph 18.4 mph N/A   Clear
4:55 PM 51.8 °F - 23.0 °F 33% 30.08 in 10.0 mi WNW 10.4 mph - N/A   Clear
5:15 PM 51.8 °F - 23.0 °F 33% 30.08 in 10.0 mi WNW 12.7 mph 19.6 mph N/A   Clear
5:35 PM 51.8 °F - 23.0 °F 33% 30.08 in 10.0 mi WNW 10.4 mph 17.3 mph N/A   Unknown
5:55 PM 51.8 °F - 23.0 °F 33% 30.08 in 10.0 mi WNW 10.4 mph 18.4 mph N/A   Clear
6:15 PM 51.8 °F - 23.0 °F 33% 30.09 in 10.0 mi West 10.4 mph 17.3 mph N/A   Clear
6:35 PM 51.8 °F - 21.2 °F 30% 30.09 in 10.0 mi WNW 10.4 mph - N/A   Unknown
6:55 PM 51.8 °F - 23.0 °F 33% 30.09 in 10.0 mi WNW 8.1 mph - N/A   Clear
7:15 PM 50.0 °F - 23.0 °F 35% 30.10 in 10.0 mi WNW 5.8 mph - N/A   Clear
7:35 PM 50.0 °F - 23.0 °F 35% 30.10 in 10.0 mi WNW 3.5 mph - N/A   Unknown
7:55 PM 50.0 °F - 23.0 °F 35% 30.10 in 10.0 mi West 3.5 mph - N/A   Clear
8:15 PM 44.6 °F - 24.8 °F 46% 30.10 in 10.0 mi Calm Calm - N/A   Clear
8:35 PM 42.8 °F - 28.4 °F 57% 30.11 in 10.0 mi Calm Calm - N/A   Clear
8:55 PM 41.0 °F - 26.6 °F 57% 30.11 in 10.0 mi Calm Calm - N/A   Clear
9:15 PM 37.4 °F - 28.4 °F 70% 30.12 in 10.0 mi Calm Calm - N/A   Clear
9:35 PM 37.4 °F - 28.4 °F 70% 30.12 in 10.0 mi Calm Calm - N/A   Clear
9:55 PM 35.6 °F - 28.4 °F 75% 30.12 in 10.0 mi Calm Calm - N/A   Clear
10:15 PM 35.6 °F - 28.4 °F 75% 30.11 in 10.0 mi Calm Calm - N/A   Clear
10:35 PM 33.8 °F - 28.4 °F 81% 30.12 in 10.0 mi Calm Calm - N/A   Clear
10:55 PM 33.8 °F - 28.4 °F 81% 30.11 in 10.0 mi Calm Calm - N/A   Unknown
11:15 PM 32.0 °F - 28.4 °F 87% 30.12 in 10.0 mi Calm Calm - N/A   Clear
11:35 PM 32.0 °F - 28.4 °F 87% 30.11 in 10.0 mi Calm Calm - N/A   Clear
11:55 PM 32.0 °F - 28.4 °F 87% 30.11 in 10.0 mi Calm Calm - N/A   Clear